Location: Broletto
(44.6000°N, 10.5833°E)
Time: 05:54:26
(UTC+00:00)

Cosmos 1356 - Pass Details

Date: 18 April 2021
Orbit: 439 x 441 km, 81.1° (Epoch: 05 May)

Event Time Altitude Azimuth Distance (km) Brightness Sun altitude
Rises 19:26:00 0° 356° (N) 2,446 7.7 -13.8°
Reaches altitude 10° 19:28:11 10° 5° (N) 1,570 6.5 -14.1°
Maximum altitude 19:31:24 38° 75° (ENE) 694 4.0 -14.6°
Enters shadow 19:32:23 30° 114° (ESE) 813 4.1 -14.7°
